Regional Weather Roundup
Issued by NWS Charleston, SC

Current Version | Previous Version | Graphics & Text | Print | Product List | Glossary On
Versions: 1 2 3 4 5 6 7 8 9 10 11 12 13 14 15 16 17 18 19 20 21 22 23 24 25 26 27 28 29 30 31 32 33 34 35 36 37 38 39 40 41 42 43 44 45 46 47 48 49 50
000
ASUS42 KCHS 231427
RWRCHS

REGIONAL WEATHER ROUNDUP
NATIONAL WEATHER SERVICE CHARLESTON SC
1000 AM EDT SAT SEP 23 2017

NOTE: "FAIR" INDICATES FEW OR NO CLOUDS BELOW 12,000 FEET WITH NO
SIGNIFICANT WEATHER AND/OR OBSTRUCTIONS TO VISIBILITY.

NOT ALL STATIONS ARE QUALITY CONTROLLED. USE DATA WITH CAUTION...
ESPECIALLY DEWPOINT OBSERVATIONS.

SCZ027-030-031-034>040-042>050-231500-
...SOUTHEAST SOUTH CAROLINA...

CITY           SKY/WX    TMP DP  RH WIND       PRES   REMARKS
N CHARLESTON   MOSUNNY   78  74  87 NE10      30.03S
WATERFRONT PRK   N/A     78  74  87 N8        29.86S
JOHNS ISLAND   FAIR      79  75  89 N7        30.03R
PINOPOLIS        N/A     73  73 100 NE6       29.97R
MONCKS CORNER  NOT AVBL
SUMMERVILLE    CLOUDY    73  72  94 CALM      30.05S FOG
BEAUFORT MCAS  PTSUNNY   79  76  90 N6        30.03R
BEAUFORT ARPT  FAIR      79  73  83 NE8       30.02R FOG
HILTON HEAD IS MOSUNNY   81  75  83 NE9       30.02S
WALTERBORO     PTSUNNY   77  72  83 E7        30.05R
ALLENDALE      NOT AVBL

...SOUTHERN MIDLANDS AND PEE DEE...

CITY           SKY/WX    TMP DP  RH WIND       PRES   REMARKS
GEORGETOWN     FAIR      77  75  94 NE6       30.05R
KINGSTREE      FAIR      77  70  78 CALM      30.05R
ORANGEBURG     SUNNY     79  67  66 NE7       30.05R
BARNWELL       FAIR      79  72  78 CALM      30.05R
AIKEN          FAIR      77  70  78 NE5       30.09S
MANNING        FAIR      77  68  73 MISG      30.05R
COLUMBIA       SUNNY     78  70  76 CALM      30.05R
SUMTER         SUNNY     80  69  70 N3        30.03R
FLORENCE       SUNNY     78  69  73 NE5       30.05S
MYRTLE BEACH   MOSUNNY   77  72  84 N7        30.06R
N MYRTLE BEACH MOSUNNY   75  73  93 N8        30.04R

$$

GAZ063-065-086>088-099>101-113>116-118-119-134>141-150-231500-
...SOUTHEAST GEORGIA...

CITY           SKY/WX    TMP DP  RH WIND       PRES   REMARKS
SAVANNAH ARPT  CLOUDY    75  74  96 N8        30.03R FOG
HUNTER AAF     CLOUDY    76  73  90 N7        30.00R
FORT STEWART   NOT AVBL
STATESBORO     MOSUNNY   78  70  76 E5        30.04R
SYLVANIA       MOSUNNY   78  75  92 E7        30.05R
CLAXTON        PTSUNNY   79  74  87 NE6       30.03S

...CSRA...CENTRAL AND FAR SOUTHEAST GEORGIA...

CITY           SKY/WX    TMP DP  RH WIND       PRES   REMARKS
THOMSON        SUNNY     73  70  90 SE3       30.11S
AUGUSTA-BUSH   SUNNY     79  72  79 N3        30.04S
AUGUSTA-DANIEL SUNNY     79  70  74 N3        30.06R
SWAINSBORO     FAIR      77  72  83 NE6       30.05R
VIDALIA        SUNNY     79  72  78 NE8       30.04S
EASTMAN        FAIR      79  64  60 NE5       30.05F
HAZLEHURST     FAIR      78  66  67 NE9       30.02S
ALMA           MOSUNNY   77  72  84 VRB5      30.01S HAZE
WAYCROSS       CLOUDY    76  73  91 NE8       30.01R
JESUP          NOT AVBL
BAXLEY         FAIR      77  75  94 E6        30.02R
BRUNSWICK      CLOUDY    75  72  88 NE5       30.00S FOG
SAINT SIMONS   HVY RAIN  75  74  96 E10G26    30.00R VSB 1/2

$$

SCZ027-028-034-036>038-045-046-048>050-GAZ119-141-231500-
...LAKE AND SUPPLEMENTAL COASTAL OBSERVATIONS...

STATION/POSITION TIME  TEMP    WIND        PRES    WAVE   SWELL
                       AIR SEA DIR/SP/G            HT/PER HT/PER/DIR
                 (UTC) (F)     (DEG/KT/KT) (MB)    (FT/S) (FT/S/D)
WINYAH BAY       1245   74     360/  4     1017.0
LAKE MURRAY      1320   76      CALM  /  4 1016.6
ACE BASIN NERRS  1245   74      20/  2     1016.0
FORT PULASKI     1342   78 81   50/  9/ 13 1016.6R
SAPELO ISLAND    1300   76        CALM     1016.0

$$

ANZ835-935-AMZ111-154-330-350-352-354-370-450-454-472-231500-
...C-MAN AND BUOY OBSERVATIONS...

STATION/POSITION TIME  TEMP    WIND        PRES    WAVE   SWELL
                       AIR SEA DIR/SP/G            HT/PER HT/PER/DIR
                 (UTC) (F)     (DEG/KT/KT) (MB)    (FT/S) (FT/S/D)
BUOY 41004       1350   80 82   40/ 14/ 17 1015.9R   6/11   5/140/11
BUOY 41008       1350   78 80  100/ 10/ 14 1015.2R   5/15   5/ 80/15
FOLLY BEACH CMAN 1400   79      30/ 10/ 12 1017.4R
CAPERS NEARSHORE 1308   77 81   40/ 12/ 17 1016.0R
FRIPP NEARSHORE  1308   78      30/ 12/ 16 1023.3R


STATION/POSITION TIME  TEMP    WIND        PRES    WAVE   SWELL
                       AIR SEA DIR/SP/G            HT/PER HT/PER/DIR
                 (UTC) (F)     (DEG/KT/KT) (MB)    (FT/S) (FT/S/D)
5E ST. MARYS GA  1400      82                N/A     5/11   3/110/11
FRYING PAN BUOY  1400   80 82   20/ 14/ 16 1016.5
BUOY 41025       1350   76 76   50/  6/  8 1016.9R   8/12   8/160/12
CAPE LOOKOUT NC  1400   77     340/  5/  7 1016.9R
BUOY 41002       1350   79 79   60/ 17/ 19 1014.5R   9/14   8/130/14
BUOY 41010       1350           60/ 16/ 21 1013.8R  10/15   8/15
ST AUGUSTINE FL  1400   79 82   30/ 15/ 15 1014.5R


$$




USA.gov is the U.S. government's official web portal to all federal, state and local government web resources and services.